sat.trackr.live / text

‹ back to catalog

STARLINK-37331

NORAD 68738 · 2026-082L

PAYLOAD ACTIVE UNKNOWN

§ Identity

Operator
Country
US
Launch date
2026-04-15
Launch site
AFWTR
Launch vehicle
Mass (kg)
RCS (m²)

Purposes: comms

External: N2YO · Heavens-Above · Gunter

§ Orbital elements

Epoch: 2026-05-25T02:51:20.563200Z

Period
92.95 min
Inclination
97.2847°
Eccentricity
0.0001627
Mean motion
15.49207329 rev/d
Perigee alt
417.9 km
Apogee alt
420.1 km
Semi-major
6,797.2 km
B*
4.0972e-4
RAAN
8.6527°
Arg perigee
86.4524°
Mean anomaly
273.6913°
Rev number
614

§ Raw data

STARLINK-373311 68738U 26082L   26145.11898800  .00022271  00000+0  40972-3 0  99912 68738  97.2847   8.6527 0001627  86.4524 273.6913 15.49207329  6148

JSON: /api/v1/satellites/68738 · /tle

For live sub-satellite position, see the globe view (requires WebGL).

§ Visibility from observer

Set your observer location to see the next 7 days of passes ≥ 10°. The values pass through the URL so the page stays shareable.

No JS? Fill the form by hand. The geolocation button needs JavaScript.